This is the latest recevied weather packets stored in our database for station/object WB4ROX. If no packets are shown the sender has not sent any weather packets the latest 10 day(s).
| Time | Temp. | Humidity | Pressure | Rain* | Wind** | Luminosity | Snow |
|---|---|---|---|---|---|---|---|
| 1777844704 | 10.56° C | 32% | 1018.3 hPa | 0 mm | - | 351 W/m² | - |
| 1777844400 | 11.11° C | 33% | 1018.1 hPa | 0 mm | - | 363 W/m² | - |
| 1777844099 | 10.56° C | 31% | 1018.1 hPa | 0 mm | - | 379 W/m² | - |
| 1777843795 | 10.56° C | 31% | 1018.4 hPa | 0 mm | - | 397 W/m² | - |
| 1777843492 | 10.56° C | 30% | 1018.4 hPa | 0 mm | - | 416 W/m² | - |
| 1777843190 | 10.56° C | 31% | 1018.3 hPa | 0 mm | - | 427 W/m² | - |
| 1777842887 | 10° C | 30% | 1018.3 hPa | 0 mm | - | 443 W/m² | - |
| 1777842582 | 10.56° C | 30% | 1018.4 hPa | 0 mm | - | 461 W/m² | - |
| 1777842279 | 10.56° C | 32% | 1018.4 hPa | 0 mm | - | 476 W/m² | - |
| 1777841973 | 10° C | 29% | 1018.6 hPa | 0 mm | - | 495 W/m² | - |
| 1777841671 | 10° C | 29% | 1018.5 hPa | 0 mm | - | 510 W/m² | - |
| 1777841367 | 10° C | 31% | 1018.4 hPa | 0 mm | - | 525 W/m² | - |
| 1777841065 | 10° C | 35% | 1018.6 hPa | 0 mm | - | 539 W/m² | - |
| 1777840761 | 10° C | 32% | 1018.4 hPa | 0 mm | - | 556 W/m² | - |
| 1777840459 | 10° C | 32% | 1018.8 hPa | 0 mm | - | 573 W/m² | - |
| 1777840155 | 10.56° C | 34% | 1018.8 hPa | 0 mm | - | 588 W/m² | - |
| 1777839854 | 10° C | 38% | 1018.6 hPa | 0 mm | - | 601 W/m² | - |
| 1777839552 | 10.56° C | 38% | 1018.6 hPa | 0 mm | - | 616 W/m² | - |
| 1777839248 | 10° C | 36% | 1018.9 hPa | 0 mm | - | 628 W/m² | - |
| 1777838946 | 10° C | 35% | 1018.9 hPa | 0 mm | - | 644 W/m² | - |
| 1777838642 | 10° C | 36% | 1019.1 hPa | 0 mm | - | 655 W/m² | - |
| 1777838339 | 10° C | 36% | 1018.9 hPa | 0 mm | - | 674 W/m² | - |
| 1777838035 | 9.44° C | 35% | 1019.1 hPa | 0 mm | - | 686 W/m² | - |
| 1777837733 | 10° C | 35% | 1019 hPa | 0 mm | - | 698 W/m² | - |
| 1777837429 | 10° C | 36% | 1018.8 hPa | 0 mm | - | 710 W/m² | - |
* Rain latest hour (hover to see other rain measurements)
** Current wind speed in m/s (hover to see current wind gust speed)